www.pogodaiklimat.ru

Погода и климат >> Архив погоды >> Норвегия >> Сирдал-Синнес


ПОГОДА в Сирдал-Синнесе

  • Прогноз погоды в Сирдал-Синнесе
  • Монитор погоды в Сирдал-Синнесе

АРХИВ ПОГОДЫ в Сирдал-Синнесе

Время (UTC), дата Ветер
(напр.,м/с)
 
Видим.   Явления Облачность Т
(С)
Тd
(С)
f
(%)
Тe
(С)
Тes
(С)
Комфортность P
(гПа)
Po
(гПа)
Тmin
(С)
Tmax
(С)
R
(мм)
R24
(мм)
S
(см)
07 10.09 штиль 0
{1}
н/о н/о +9.8 +9.2 96 +9 +9 1013.6 948.5
08 10.09 С 1
{2}
н/о н/о +10.3 +9.2 93 +10 +10 1013.2 948.2 0.3
09 10.09 С 1
{2}
н/о н/о +10.7 +9.3 91 +10 +10 1013.1 948.2 0.6
10 10.09 С 2
{4}
н/о н/о +11.4 +9.7 89 +10 +10 1012.5 947.8 0.8
11 10.09 С 3
{5}
н/о н/о +12.3 +10.2 87 +11 +11 1012.1 947.7 0.5
12 10.09 СВ 2
{5}
н/о н/о +13.4 +10.4 82 +13 +13 1012.0 947.8
13 10.09 СВ 2
{3}
н/о н/о +14.6 +10.6 77 +14 +14 1011.4 947.5 0.1
14 10.09 С 2
{4}
н/о н/о +14.8 +10.4 75 +15 +15 1011.2 947.3
15 10.09 С 3
{5}
н/о н/о +13.9 +10.1 78 +13 +13 1011.3 947.2
16 10.09 С 1
{4}
н/о н/о +12.4 +11.1 92 +12 +12 1011.6 947.2 0.3
17 10.09 штиль 0
{2}
н/о н/о +12.1 +10.8 92 +11 +11 1012.0 947.5 0.1
18 10.09 С 1
{5}
н/о н/о +11.6 +10.8 95 +11 +11 1012.1 947.5 +9.2 +14.9 3
19 10.09 В 1
{1}
н/о н/о +10.5 +9.7 95 +10 +10 1011.6 946.8
20 10.09 С 1
{2}
н/о н/о +9.4 +9.0 97 +9 +9 1012.4 947.3
21 10.09 штиль 0
{2}
н/о н/о +9.9 +9.5 97 +9 +9 1012.1 947.1
22 10.09 штиль 0
{1}
н/о н/о +10.2 +9.8 97 +9 +9 1011.6 946.7
23 10.09 Ю 1
{2}
н/о н/о +10.4 +9.8 96 +10 +10 1011.5 946.5
00 11.09 Ю 1
{3}
н/о н/о +10.3 +9.5 95 +10 +10 1011.2 946.3
01 11.09 Ю 2
{4}
н/о н/о +10.2 +8.8 91 +9 +9 1010.8 945.9
02 11.09 Ю 2
{5}
н/о н/о +8.4 +7.0 91 +6 +6 1010.9 945.6
03 11.09 Ю 2
{5}
н/о н/о +8.1 +6.2 88 +6 +6 1010.4 945.1
04 11.09 Ю 3
{5}
н/о н/о +8.1 +5.7 85 +5 +5 1009.5 944.3
05 11.09 Ю 2
{5}
н/о н/о +8.3 +6.1 86 +6 +6 1008.8 943.7
06 11.09 Ю 3
{6}
н/о н/о +8.9 +6.7 86 +6 +6 1007.5 942.6 +8.0 +11.6
07 11.09 Ю 3
{5}
н/о н/о +9.3 +7.8 90 +7 +7 1006.5 941.7 0.4
08 11.09 Ю 4
{8}
н/о н/о +9.5 +7.6 88 +7 +7 1006.3 941.5 2
09 11.09 Ю 3
{10}
н/о н/о +9.2 +7.8 91 +7 +7 1006.1 941.3 0.9
10 11.09 Ю 3
{8}
н/о н/о +9.4 +8.0 91 +7 +7 1005.5 940.8 0.7
11 11.09 ЮЗ 2
{6}
н/о н/о +9.6 +8.5 93 +8 +8 1004.9 940.3 0.2
12 11.09 ЮЗ 2
{10}
н/о н/о +10.3 +9.2 93 +9 +9 1003.9 939.5 0.3
13 11.09 ЮЗ 2
{3}
н/о н/о +10.7 +9.8 94 +9 +9 1003.5 939.2 1
14 11.09 ЮЗ 2
{3}
н/о н/о +11.1 +10.3 95 +10 +10 1002.8 938.8 0.4
15 11.09 СЗ 2
{7}
н/о н/о +11.8 +9.5 86 +11 +11 1004.0 939.9 4
16 11.09 З 2
{5}
н/о н/о +11.6 +8.8 83 +10 +10 1004.8 940.6 0.1
17 11.09 СЗ 1
{4}
н/о н/о +11.1 +8.2 82 +11 +11 1005.8 941.5
18 11.09 штиль 0
{7}
н/о н/о +10.0 +7.8 86 +9 +9 1007.1 942.5 +8.8 +12.0 11
19 11.09 ЮЗ 1
{6}
н/о н/о +9.6 +6.3 80 +9 +9 1008.2 943.3 0.2
20 11.09 З 1
{7}
н/о н/о +8.9 +7.0 88 +8 +8 1009.0 944.1 0.1
21 11.09 С 1
{3}
н/о н/о +8.6 +6.7 88 +8 +8 1009.5 944.4 0.3
22 11.09 СЗ 1
{4}
н/о н/о +8.7 +6.8 88 +8 +8 1010.2 945.0 0.1
23 11.09 ЮВ 1
{5}
н/о н/о +9.2 +7.0 86 +9 +9 1010.2 945.2 0.5
00 12.09 З 2
{7}
н/о н/о +9.4 +7.0 85 +8 +8 1010.9 946.0 0.9
01 12.09 З 2
{7}
н/о н/о +9.6 +6.5 81 +8 +8 1011.6 946.5
02 12.09 З 2
{8}
н/о н/о +9.5 +6.1 79 +8 +8 1012.1 947.0
03 12.09 ЮЗ 2
{6}
н/о н/о +9.4 +6.8 84 +8 +8 1012.2 947.1
04 12.09 З 2
{7}
н/о н/о +9.1 +6.9 86 +7 +7 1012.8 947.6
05 12.09 З 1
{6}
н/о н/о +9.0 +6.8 86 +8 +8 1013.0 947.7
06 12.09 ЮЗ 2
{8}
н/о н/о +9.4 +7.2 86 +8 +8 1013.3 948.2 +8.4 +10.0 2
07 12.09 ЮЗ 4
{8}
н/о н/о +10.4 +6.2 75 +8 +8 1013.9 948.9
08 12.09 З 3
{7}
н/о н/о +10.0 +6.7 80 +8 +8 1014.8 949.6
09 12.09 ЮЗ 5
{9}
н/о н/о +11.2 +6.4 72 +9 +9 1014.9 950.0
10 12.09 ЮЗ 5
{9}
н/о н/о +11.3 +6.3 71 +9 +9 1015.2 950.3
11 12.09 ЮЗ 4
{8}
н/о н/о +11.0 +6.8 75 +9 +9 1015.5 950.5
12 12.09 ЮЗ 3
{9}
н/о н/о +10.6 +7.3 80 +9 +9 1015.9 950.7
13 12.09 ЮЗ 3
{8}
н/о н/о +10.2 +7.3 82 +8 +8 1016.0 950.8
14 12.09 ЮЗ 2
{7}
н/о н/о +10.0 +7.1 82 +9 +9 1016.1 950.9
15 12.09 Ю 2
{5}
н/о н/о +9.6 +7.4 86 +8 +8 1016.0 950.7
16 12.09 Ю 1
{6}
н/о н/о +9.2 +7.0 86 +9 +9 1016.0 950.6
17 12.09 Ю 3
{6}
н/о н/о +9.2 +7.2 87 +7 +7 1015.6 950.2
18 12.09 Ю 1
{8}
н/о н/о +8.8 +7.3 90 +8 +8 1015.9 950.4 +11.6 0.1
19 12.09 ЮЗ 3
{8}
н/о н/о +9.1 +6.6 84 +7 +7 1015.7 950.3 0.3
20 12.09 З 3
{6}
н/о н/о +8.7 +5.5 80 +6 +6 1016.0 950.5 0.1
21 12.09 Ю 2
{5}
н/о н/о +8.5 +6.3 86 +7 +7 1016.2 950.6
22 12.09 З 2
{7}
н/о н/о +8.7 +5.6 81 +7 +7 1016.2 950.7 0.3
23 12.09 СЗ 2
{7}
н/о н/о +8.5 +5.3 80 +7 +7 1016.6 951.0 0.3
00 13.09 З 2
{8}
н/о н/о +8.0 +4.6 79 +6 +6 1017.2 951.5 0.3
01 13.09 З 2
{5}
н/о н/о +7.7 +4.3 79 +6 +6 1017.7 951.7
02 13.09 СЗ 2
{8}
н/о н/о +7.5 +3.6 76 +6 +6 1018.1 952.3
03 13.09 СЗ 1
{9}
н/о н/о +7.3 +4.3 81 +6 +6 1018.8 952.8 0.1
04 13.09 СЗ 2
{7}
н/о н/о +6.8 +3.8 81 +5 +5 1019.7 953.5 0.1
05 13.09 З 1
{7}
н/о н/о +6.8 +3.6 80 +6 +6 1020.2 954.1 0.1
06 13.09 З 3
{9}
н/о н/о +7.0 +2.5 73 +4 +4 1020.8 954.6 +6.6 +9.1 2
07 13.09 З 2
{7}
н/о н/о +7.2 +3.6 78 +5 +5 1021.8 955.6 0.3
08 13.09 З 3
{8}
н/о н/о +7.9 +3.8 75 +5 +5 1022.2 956.1 0.2
09 13.09 З 4
{10}
н/о н/о +8.5 +3.8 72 +6 +6 1022.6 956.8 0.1
10 13.09 н/о н/о
11 13.09 З 4 н/о н/о +9.2 +4.8 74 +6 +6 1023.9 958.0 0.3
12 13.09 З 6
{12}
н/о н/о +10.3 +3.1 61 +7 +7 1024.4 958.7 1
13 13.09 З 2 н/о н/о +9.0 +3.8 70 +7 +7 1025.2 959.0
14 13.09 н/о н/о
15 13.09 З 5 н/о н/о +9.0 +4.0 71 +6 +6 1025.5 959.5 0.7
16 13.09 З 4 н/о н/о +9.0 +3.2 67 +6 +6 1025.6 959.5 0.1
17 13.09 З 3 н/о н/о +8.5 +3.2 69 +6 +6 1025.8 959.7
18 13.09 СЗ 4
{12}
н/о н/о +7.9 +3.2 72 +5 +5 1026.3 960.0 +10.9 2
19 13.09 З 3 н/о н/о +7.1 +3.4 77 +4 +4 1027.0 960.3
20 13.09 З 3 н/о н/о +7.8 +3.5 74 +5 +5 1027.0 960.6
21 13.09 Ю 2 н/о н/о +7.0 +3.4 78 +5 +5 1027.4 960.8
22 13.09 Ю 3 н/о н/о +7.4 +2.9 73 +5 +5 1028.0 961.4
23 13.09 З 1 н/о н/о +7.6 +3.3 74 +7 +7 1027.7 961.2
00 14.09 З 3
{13}
н/о н/о +7.8 +3.3 73 +5 +5 1027.4 961.0
01 14.09 СЗ 3
{8}
н/о н/о +7.9 +3.2 72 +5 +5 1027.5 961.1
02 14.09 СЗ 2
{9}
н/о н/о +7.7 +3.0 72 +6 +6 1027.3 960.8
03 14.09 СЗ 3 н/о н/о +7.8 +3.3 73 +5 +5 1027.5 960.9
04 14.09 СЗ 3
{9}
н/о н/о +7.8 +2.7 70 +5 +5 1027.0 960.6
05 14.09 З 3
{7}
н/о н/о +8.1 +3.2 71 +6 +6 1026.6 960.3
06 14.09 Ю 1
{9}
н/о н/о +7.0 +5.5 90 +6 +6 1026.6 960.0 +6.9 0.2
07 14.09 ЮВ 1 н/о н/о +7.4 +6.5 94 +6 +6 1026.2 959.7 1
09 14.09 Ю 3
{7}
н/о н/о +8.9 +7.2 89 +6 +6 1025.6 959.5
10 14.09 ЮЗ 3
{6}
н/о н/о +9.8 +6.9 82 +8 +8 1025.1 959.2 0.5
11 14.09 ЮЗ 4
{9}
н/о н/о +10.0 +7.3 83 +7 +7 1024.5 958.8
12 14.09 Ю 3 н/о н/о +9.2 +7.3 88 +7 +7 1023.8 957.8
13 14.09 Ю 4
{8}
н/о н/о +8.4 +6.4 87 +5 +5 1023.4 957.3 1
14 14.09 Ю 3
{7}
н/о н/о +7.7 +5.7 87 +5 +5 1021.7 955.6 2
15 14.09 Ю 3
{6}
н/о н/о +7.8 +6.1 89 +5 +5 1020.2 954.1 2
16 14.09 Ю 4
{10}
н/о н/о +7.5 +5.8 89 +4 +4 1019.0 952.9 2
17 14.09 Ю 2
{9}
н/о н/о +7.3 +6.1 92 +5 +5 1017.4 951.5 3
18 14.09 Ю 3
{10}
н/о н/о +7.0 +5.8 92 +4 +4 1016.0 950.1
19 14.09 Ю 4
{7}
н/о н/о +7.9 +7.0 94 +4 +4 1013.4 947.9 5
20 14.09 Ю 4
{9}
н/о н/о +9.0 +7.9 93 +6 +6 1011.4 946.1 5
21 14.09 Ю 3
{8}
н/о н/о +9.5 +8.4 93 +7 +7 1010.0 945.0 5
22 14.09 Ю 3
{7}
н/о н/о +9.8 +8.7 93 +7 +7 1007.9 943.1 5
23 14.09 ЮЗ 2
{5}
н/о н/о +10.1 +8.9 92 +8 +8 1007.0 942.4 5
00 15.09 СЗ 1
{11}
н/о н/о +8.9 +6.9 87 +8 +8 1006.7 941.8 4
01 15.09 СЗ 4
{9}
н/о н/о +7.9 +5.0 82 +5 +5 1007.4 942.3 3
02 15.09 СЗ 2
{9}
н/о н/о +8.1 +5.1 81 +6 +6 1006.2 941.2 1
03 15.09 СЗ 4
{10}
н/о н/о +8.4 +3.9 73 +5 +5 1005.2 940.3 0.1
04 15.09 З 3
{13}
н/о н/о +7.5 +3.9 78 +5 +5 1005.6 940.4 0.6
05 15.09 З 5
{13}
н/о н/о +6.9 +4.1 82 +3 +3 1005.1 939.9 0.7
06 15.09 З 3
{13}
н/о н/о +6.4 +3.4 81 +3 +3 1005.4 940.1 +6.2 +10.2 35
07 15.09 ЮЗ 4
{12}
н/о н/о +6.6 +2.7 76 +3 +3 1005.9 940.6 0.5
08 15.09 З 4
{12}
н/о н/о +6.0 +2.1 76 +2 +2 1006.3 940.9 0.2
09 15.09 З 5
{11}
н/о н/о +6.2 +2.8 79 +2 +2 1006.5 941.1 1
10 15.09 З 3
{12}
н/о н/о +6.6 +4.3 85 +4 +4 1006.2 940.9 2
11 15.09 З 4 н/о н/о +7.7 +4.3 79 +4 +4 1005.9 940.8 1
12 15.09 З 4
{14}
н/о н/о +7.8 +4.9 82 +4 +4 1005.9 940.7 1
13 15.09 СЗ 5
{11}
н/о н/о +7.8 +4.8 81 +4 +4 1006.1 941.0 2
14 15.09 З 3
{14}
н/о н/о +7.9 +4.9 81 +5 +5 1006.5 941.5 2
15 15.09 З 4
{17}
н/о н/о +8.0 +5.1 82 +5 +5 1007.0 941.9 0.9
16 15.09 З 3
{15}
н/о н/о +7.1 +4.3 82 +4 +4 1007.7 942.4 3
17 15.09 З 5
{13}
н/о н/о +7.6 +4.4 80 +4 +4 1007.5 942.3 1
18 15.09 С 4
{17}
н/о н/о +6.8 +4.1 83 +3 +3 1009.0 943.4 +5.4 +9.0 16
19 15.09 СЗ 5
{15}
н/о н/о +7.0 +3.1 76 +3 +3 1009.3 943.8 0.4
20 15.09 СЗ 4
{12}
н/о н/о +7.2 +1.9 69 +4 +4 1010.2 944.6
21 15.09 СЗ 5
{10}
н/о н/о +6.2 +2.1 75 +2 +2 1010.7 945.0 0.1
22 15.09 С 5
{10}
н/о н/о +6.1 +1.8 74 +2 +2 1010.8 945.0
23 15.09 С 4
{13}
н/о н/о +5.4 +2.2 80 +1 +1 1010.7 944.8
00 16.09 СЗ 3
{15}
н/о н/о +5.8 +1.9 76 +3 +3 1010.5 944.6
01 16.09 СЗ 3
{10}
н/о н/о +6.0 +1.9 75 +3 +3 1010.5 944.7
02 16.09 СЗ 3
{9}
н/о н/о +5.9 +2.0 76 +3 +3 1010.6 944.9
03 16.09 С 3
{9}
н/о н/о +5.4 +1.9 78 +2 +2 1011.0 945.1
04 16.09 СЗ 2
{7}
н/о н/о +5.1 +2.6 84 +3 +3 1011.1 945.1 0.1
05 16.09 СЗ 2
{9}
н/о н/о +5.4 +2.2 80 +3 +3 1011.0 945.1 0.1
06 16.09 С 4
{10}
н/о н/о +5.7 +1.4 74 +2 +2 1011.5 945.6 +5.0 +7.4 1
07 16.09 СЗ 3
{11}
н/о н/о +5.8 +1.4 73 +3 +3 1011.8 945.9
08 16.09 СЗ 2
{8}
н/о н/о +5.7 +2.7 81 +3 +3 1012.2 946.3 0.1
09 16.09 СЗ 2
{7}
н/о н/о +6.7 +1.8 71 +5 +5 1012.2 946.5
10 16.09 СЗ 4
{10}
н/о н/о +7.3 +0.3 61 +4 +4 1012.4 946.8
11 16.09 З 3
{8}
н/о н/о +7.4 +3.5 76 +5 +5 1012.4 946.8
12 16.09 З 3
{11}
н/о н/о +7.7 +2.8 71 +5 +5 1012.1 946.6
13 16.09 ЮЗ 4
{8}
н/о н/о +8.7 +3.4 69 +6 +6 1011.3 946.1
14 16.09 ЮЗ 2
{8}
н/о н/о +7.3 +4.4 82 +5 +5 1011.5 946.0
15 16.09 ЮЗ 4
{8}
н/о н/о +6.9 +4.1 82 +3 +3 1011.2 945.6 0.2
16 16.09 ЮЗ 3
{6}
н/о н/о +7.4 +4.2 80 +5 +5 1010.3 945.0 0.4
17 16.09 СЗ 2
{6}
н/о н/о +5.9 +3.4 84 +3 +3 1010.5 944.7 0.8
18 16.09 ЮВ 1
{8}
н/о н/о +5.3 +3.8 90 +4 +4 1009.8 943.9 +5.2 +9.7 3
19 16.09 З 2
{7}
н/о н/о +5.5 +3.2 85 +3 +3 1009.7 943.9 2
20 16.09 З 3
{8}
н/о н/о +5.5 +2.5 81 +2 +2 1009.4 943.5 1
21 16.09 ЮЗ 2
{7}
н/о н/о +3.9 +1.6 85 +1 +1 1009.2 943.0 0.5
22 16.09 З 3
{9}
н/о н/о +4.4 +1.4 81 +1 +1 1008.7 942.8 0.8
23 16.09 СЗ 3
{9}
н/о н/о +3.4 +1.0 84 -1 -1 1008.7 942.5 4
00 17.09 З 2
{9}
н/о н/о +3.5 -0.1 77 +1 +1 1007.8 941.7 0.1
01 17.09 СЗ 4
{10}
н/о н/о +2.4 -0.5 81 -2 -2 1008.8 942.2 0.7
02 17.09 В 1
{6}
н/о н/о +1.5 +0.4 92 -0 -0 1008.1 941.5 2
03 17.09 С 2
{3}
н/о н/о +1.1 +0.4 95 -3 -3 1007.8 941.1 2
04 17.09 С 2
{4}
н/о н/о +1.1 +0.4 95 -3 -3 1007.0 940.4 2
05 17.09 З 3
{10}
н/о н/о +1.8 0.0 88 -3 -3 1006.6 940.1 2

 

Местоположение метеостанции Сирдал-Синнес (Норвегия): широта 58.92 долгота 6.91 высота над уровнем моря 560 м.

В архиве по умолчанию представлена погода в Сирдал-Синнесе за последнюю неделю. Архивные данные за месяц целиком и за предыдущие месяцы, начиная с января 2011 года, Вы можете получить, выбрав интересующий диапазон дат из раскрывающегося списка и нажав кнопку "Ввод!".


*Определитесь, кто Вы:
робот инопланетянин человек

Внимание! Время в таблицах - всемирное. Для получения местного времени необходимо прибавить поправку, которая равна 1 ч.

Смотрите также архив погоды в соседних городах и на ближайших метеорологических станциях:

Погода в Бляшу (Норвегия) (46 км)
Погода в Валле (Норвегия) (47 км)
Погода на Лярватне (Норвегия) (48 км)
Погода в Эйк-Хоуве (Норвегия) (51 км)
Погода в Бигландсфьорде (Норвегия) (57 км)
Погода в Фистере (Норвегия) (58 км)
Погода в Ставангере (Норвегия) (68 км)
Погода в Ставангер аэропорту (Норвегия) (73 км)
Погода в Сархейме (Норвегия) (75 км)
Погода в Консмо-Хойланде (Норвегия) (77 км)

Пояснения к столбцам:

Ветер - указаны скорость ветра в м/с - средняя за 10 мин, порывы в срок и между сроками (в фигурных скобках) и направление, откуда дует ветер: С - северный, СВ - северо-восточный, В - восточный, ЮВ - юго-восточный, Ю - южный, ЮЗ - юго-западный, З - западный, СЗ - северо-западный.
Видимость - горизонтальная дальность видимости в метрах или километрах. При видимости от 1 до 10 км при отсутствии осадков обычно наблюдается дымка, при ухудшении видимости до 1 км и менее - туман. В сухую погоду видимость может ухудшаться дымом, пылью или мглою.
Явления - указаны атмосферные явления, наблюдавшиеся в срок или в последний час перед сроком; фигурными скобками обозначены явления, наблюдавшиеся между сроками (за 1-3 часа до срока); квадратными скобками обозначены град или гололедные отложения с указанием их диаметра в мм.
Облачность - указаны через наклонную черту общая и нижняя облачность в баллах и высота нижней границы облаков в метрах; квадратными скобками обозначены формы облаков: Ci - перистые, Cs - перисто-слоистые, Cc - перисто-кучевые, Ac - высококучевые, As - высокослоистые, Sc - слоисто-кучевые, Ns - слоисто-дождевые, Cu - кучевые, Cb - кучево-дождевые. Подробнее классификацию облаков см. в Атласе облаков (PDF).
T - Температура воздуха - температура, измеренная на высоте 2 м над землей.
Td - Температура точки росы - температура, при понижении до которой содержащийся в воздухе водяной пар достигнет насыщения.
f - Относительная влажность воздуха - влажноcть воздуха, измеренная на высоте 2 м над землей.
Te - Эффективная температура - температура, которую ощущает одетый по сезону человек в тени. Характеристика душности погоды. При расчете учитывается влияние влажности воздуха и скорости ветра на теплоощущения человека.
Tes - Эффективная температура на солнце - температура, которую ощущает человек, с поправкой на солнечный нагрев. Характеристика знойности погоды. Зависит от высоты солнца над горизонтом, облачности и скорости ветра. Ночью, в пасмурную погоду, а также при ветре 12 м/с и более поправка равна нулю.
P - Атмосферное давление - приведенное к уровню моря атмосферное давление.
Po - Атмосферное давление - измеренное на уровне метеостанции атмосферное давление.
Tmin - Минимальная температура - минимум температуры воздуха на высоте 2 м над землей.
Tmax - Максимальная температура - максимум температуры воздуха на высоте 2 м над землей.
R - Количество осадков - Количество выпавших осадков за период времени, мм. При наведении курсора мыши на число - период времени, за который выпало указанное количество осадков.
R24 - Количество осадков - Количество выпавших осадков за 24 часа, мм.
S - Снежный покров - Высота снежного покрова, см. При наведении курсора мыши на число - состояние снежного покрова и степень покрытия местности в баллах.